DELTA 1 DEB, 10868

Orbit data source: Space-Track

DELTA 1 DEB, 10868 is space debris in SSO originally from a launch on Thu, 29 Jul 1976 UTC launched from the Air Force Western Test Range (AFWTR). Debris objects in space refer to the collection of defunct objects orbiting the Earth. Examples of debris include non-operational satellites, rocket bodies, and fragments generated from explosions, collisions, or faulty payload assembly.

Loading next visibility...
Identifier
10868, 1976-077CW
Orbit
SSO
Country
Flag of USUS
Related business
Manufacturer
Unknown
Mission
Spacecraft
Bus & Motor
Unknown
Mass
Unknown
Launch date (UTC)
1976-07-29 (50 years ago)
Launch vehicle
Unknown
Launch site
Air Force Western Test Range (AFWTR)
Object type
Payload
Rocket body
Debris
Shape & HBR
Unknown shape, 0.1 m
Radar Cross Section
Medium (>0.1 m² and <1 m²)

Expand to show TLE details & history
Last TLE update: 4 hours ago

TLE from 4 hours ago
0 DELTA 1 DEB
1 10868U 76077CW  26256.31527951  .00000381  00000-0  31663-2 0  9997
2 10868 102.4017 104.3560 0102118 271.6652 265.0082 12.39696496253762
Epoch: 2026-09-13T07:34Z
TLE epoch observation values (Epoch: 2026-09-13T07:34:00.149Z)
Latitude
4.3065°
Longitude
179.48787°
Altitude
1,517.791 km
Speed
7.103 km/s
True Right ascension
19h 01m 12s
True Declination
4° 16' 60"
Sunlit
Object was in daylight at epoch
Visualization orbit readout
Latitude
Unknown
Longitude
Unknown
Altitude
Unknown
Speed
Unknown
Apparent Right ascension
Unknown
Apparent Declination
Unknown
Sunlit
N/A
Visualization observer readout
Local Sidereal Time
04:03:40
Azimuth
Unknown
Elevation
Unknown
Doppler factor
Unknown
Orbital elements
Apogee altitude
1,585.995 km
Perigee altitude
1,424.983 km
Semi-major axis
7,883.626 km
Eccentricity
0.01021
Inclination
102.4017°
RAAN
104.356°
Arg. of periapsis
271.6652°
True anomaly
263.84383°
Mean anomaly
265.0082°
Eccentric anomaly
264.42587°
Mean motion
3.10066 °/min
Orbital period
116.1 mins
BSTAR
0.0031663
Loading maneuver chart data...
Computing Atmospheric mass density...
Loading historical data...
Loading historical data...
Loading historical data...
Loading historical data...
Loading historical data...
Loading historical data...
Loading historical data...

Documentation

Showing up to 5 results
|